TimeCDT,TemperatureF,Dew PointF,Humidity,Sea Level PressureIn,VisibilityMPH,Wind Direction,Wind SpeedMPH,Gust SpeedMPH,PrecipitationIn,Events,Conditions,WindDirDegrees,DateUTC
12:15 AM,63.7,54.9,73,30.05,10.0,North,12.7,-,N/A,,Overcast,10,2012-10-06 05:15:00
12:35 AM,62.8,54.3,74,30.05,10.0,NNE,10.4,-,N/A,,Overcast,30,2012-10-06 05:35:00
12:55 AM,61.9,53.6,74,30.06,10.0,NNE,11.5,-,N/A,,Overcast,20,2012-10-06 05:55:00
1:15 AM,61.7,53.1,73,30.06,10.0,North,12.7,-,N/A,,Overcast,10,2012-10-06 06:15:00
1:55 AM,60.1,52.3,76,30.06,10.0,NNE,10.4,-,N/A,,Mostly Cloudy,20,2012-10-06 06:55:00
2:15 AM,59.7,52.0,76,30.07,10.0,North,9.2,-,N/A,,Mostly Cloudy,10,2012-10-06 07:15:00
2:35 AM,59.5,52.0,76,30.07,10.0,North,10.4,-,N/A,,Overcast,10,2012-10-06 07:35:00
2:55 AM,59.2,51.8,77,30.06,10.0,NNE,5.8,-,N/A,,Mostly Cloudy,30,2012-10-06 07:55:00
3:15 AM,59.0,51.8,77,30.06,10.0,North,9.2,-,N/A,,Scattered Clouds,10,2012-10-06 08:15:00
3:35 AM,58.6,51.8,78,30.06,10.0,NNE,6.9,-,N/A,,Scattered Clouds,20,2012-10-06 08:35:00
3:55 AM,58.3,51.8,79,30.06,10.0,NNE,6.9,-,N/A,,Scattered Clouds,20,2012-10-06 08:55:00
4:35 AM,58.1,51.8,80,30.07,10.0,NNE,11.5,-,N/A,,Overcast,20,2012-10-06 09:35:00
4:55 AM,58.1,51.8,80,30.08,10.0,North,9.2,-,N/A,,Overcast,10,2012-10-06 09:55:00
5:15 AM,58.3,52.0,80,30.07,10.0,NNE,6.9,-,N/A,,Overcast,20,2012-10-06 10:15:00
5:35 AM,58.3,52.0,80,30.08,10.0,North,8.1,-,N/A,,Overcast,10,2012-10-06 10:35:00
5:55 AM,58.5,52.2,80,30.08,10.0,North,10.4,-,N/A,,Overcast,10,2012-10-06 10:55:00
6:15 AM,58.5,52.2,80,30.09,10.0,North,8.1,-,N/A,,Overcast,10,2012-10-06 11:15:00
6:35 AM,58.3,52.3,81,30.09,10.0,North,6.9,-,N/A,,Overcast,10,2012-10-06 11:35:00
6:55 AM,58.1,52.7,82,30.10,10.0,North,10.4,-,N/A,Rain,Rain,10,2012-10-06 11:55:00
7:15 AM,57.4,54.0,88,30.09,10.0,NNE,8.1,-,0.01,Rain,Light Rain,30,2012-10-06 12:15:00
7:35 AM,56.7,54.1,91,30.10,10.0,NNE,6.9,-,0.01,,Overcast,30,2012-10-06 12:35:00
7:55 AM,56.5,54.1,92,30.10,7.0,NNE,8.1,-,0.01,,Overcast,20,2012-10-06 12:55:00
8:15 AM,56.5,54.3,92,30.11,10.0,North,5.8,-,N/A,,Overcast,10,2012-10-06 13:15:00
8:35 AM,56.7,54.7,93,30.11,7.0,NNE,8.1,-,N/A,,Overcast,20,2012-10-06 13:35:00
8:55 AM,56.3,54.7,94,30.11,5.0,NNE,6.9,-,N/A,,Overcast,20,2012-10-06 13:55:00
9:15 AM,56.3,55.0,96,30.12,2.5,NNE,6.9,-,N/A,,Overcast,20,2012-10-06 14:15:00
9:35 AM,56.3,54.9,95,30.12,3.0,NNE,8.1,-,N/A,,Overcast,20,2012-10-06 14:35:00
9:55 AM,56.5,55.2,96,30.12,5.0,NE,8.1,-,N/A,,Overcast,50,2012-10-06 14:55:00
10:15 AM,56.5,54.5,93,30.12,10.0,ENE,10.4,-,N/A,,Overcast,60,2012-10-06 15:15:00
10:35 AM,56.7,53.4,89,30.12,10.0,ENE,9.2,-,N/A,,Overcast,70,2012-10-06 15:35:00
10:55 AM,56.7,52.9,87,30.12,10.0,ENE,6.9,-,N/A,,Overcast,60,2012-10-06 15:55:00
11:15 AM,57.0,52.7,85,30.12,10.0,NE,6.9,-,N/A,,Overcast,40,2012-10-06 16:15:00
11:35 AM,56.8,52.5,85,30.12,10.0,NE,6.9,-,N/A,,Overcast,50,2012-10-06 16:35:00
11:55 AM,56.5,52.5,87,30.12,10.0,NNE,9.2,-,N/A,,Overcast,20,2012-10-06 16:55:00
12:15 PM,55.6,52.2,88,30.12,10.0,NE,6.9,-,N/A,,Overcast,40,2012-10-06 17:15:00
12:35 PM,56.1,51.8,85,30.12,10.0,NE,6.9,-,N/A,,Overcast,40,2012-10-06 17:35:00
12:55 PM,56.5,51.6,84,30.12,10.0,NE,4.6,-,N/A,,Overcast,50,2012-10-06 17:55:00
1:15 PM,56.5,51.4,83,30.12,10.0,North,8.1,-,N/A,,Overcast,360,2012-10-06 18:15:00
1:35 PM,56.5,51.4,83,30.12,10.0,NNE,5.8,-,N/A,,Overcast,30,2012-10-06 18:35:00
1:55 PM,56.7,51.4,83,30.11,10.0,NE,5.8,-,N/A,,Overcast,50,2012-10-06 18:55:00
2:15 PM,56.8,51.8,83,30.10,10.0,ENE,6.9,-,N/A,,Overcast,60,2012-10-06 19:15:00
2:35 PM,57.2,51.6,82,30.10,10.0,NNE,8.1,-,N/A,,Overcast,20,2012-10-06 19:35:00
2:55 PM,56.5,51.8,84,30.10,10.0,North,10.4,-,N/A,,Overcast,10,2012-10-06 19:55:00
3:15 PM,55.4,51.6,87,30.10,10.0,NNE,9.2,-,N/A,,Overcast,20,2012-10-06 20:15:00
3:35 PM,55.2,51.3,87,30.10,10.0,NE,6.9,-,N/A,,Overcast,40,2012-10-06 20:35:00
3:55 PM,54.7,50.7,86,30.09,10.0,NNE,10.4,16.1,N/A,,Overcast,30,2012-10-06 20:55:00
4:15 PM,54.5,50.2,85,30.09,10.0,NE,8.1,-,N/A,,Overcast,40,2012-10-06 21:15:00
4:35 PM,54.0,49.5,85,30.10,10.0,NE,6.9,-,N/A,,Overcast,40,2012-10-06 21:35:00
4:55 PM,53.2,48.9,85,30.11,10.0,NNE,9.2,-,N/A,,Overcast,30,2012-10-06 21:55:00
5:15 PM,53.1,48.4,84,30.11,10.0,NNE,6.9,-,N/A,,Overcast,30,2012-10-06 22:15:00
5:35 PM,53.4,48.2,82,30.11,10.0,NE,6.9,-,N/A,,Overcast,40,2012-10-06 22:35:00
5:55 PM,53.1,47.8,82,30.11,10.0,NE,6.9,-,N/A,,Overcast,40,2012-10-06 22:55:00
6:15 PM,53.1,47.5,81,30.12,10.0,NNE,9.2,-,N/A,,Overcast,30,2012-10-06 23:15:00
6:35 PM,53.1,46.9,80,30.12,10.0,NE,5.8,-,N/A,,Overcast,40,2012-10-06 23:35:00
6:55 PM,53.1,46.4,78,30.13,10.0,NNE,8.1,-,N/A,,Overcast,30,2012-10-06 23:55:00
7:15 PM,53.2,45.3,74,30.13,10.0,NE,9.2,-,N/A,,Overcast,50,2012-10-07 00:15:00
7:35 PM,53.1,44.6,73,30.14,10.0,NE,8.1,-,N/A,,Overcast,40,2012-10-07 00:35:00
7:55 PM,53.1,44.6,73,30.14,10.0,NNE,10.4,-,N/A,,Overcast,30,2012-10-07 00:55:00
8:15 PM,52.9,44.8,74,30.16,10.0,NNE,9.2,-,N/A,,Overcast,20,2012-10-07 01:15:00
8:35 PM,52.9,44.6,73,30.17,10.0,NNE,6.9,-,N/A,,Overcast,20,2012-10-07 01:35:00
8:55 PM,52.5,44.1,73,30.17,10.0,NNE,10.4,16.1,N/A,,Overcast,20,2012-10-07 01:55:00
9:15 PM,52.0,43.3,72,30.17,10.0,NE,11.5,16.1,N/A,,Overcast,50,2012-10-07 02:15:00
9:35 PM,51.8,42.8,71,30.18,10.0,NNE,12.7,18.4,N/A,,Overcast,30,2012-10-07 02:35:00
9:55 PM,51.8,42.3,70,30.19,10.0,NE,11.5,16.1,N/A,,Overcast,40,2012-10-07 02:55:00
10:15 PM,51.8,41.5,68,30.19,10.0,NNE,12.7,18.4,N/A,,Overcast,30,2012-10-07 03:15:00
10:35 PM,51.6,41.0,67,30.19,10.0,NE,8.1,18.4,N/A,,Overcast,40,2012-10-07 03:35:00
10:55 PM,51.3,41.0,68,30.19,10.0,North,8.1,-,N/A,,Overcast,10,2012-10-07 03:55:00
11:15 PM,51.3,40.8,67,30.19,10.0,NNE,12.7,17.3,N/A,,Overcast,30,2012-10-07 04:15:00
11:35 PM,50.5,40.3,68,30.20,10.0,NNE,12.7,21.9,N/A,,Overcast,20,2012-10-07 04:35:00
11:55 PM,50.2,40.3,69,30.19,10.0,NNE,12.7,21.9,N/A,,Overcast,20,2012-10-07 04:55:00